Weather in Amboise

France     47°24′35″N   0°58′47″E
temp.,
°C
wind,
m/s
gust,
m/s
humid.,
%
clouds,
%
prec.,
mm/h
press.,
hPa
HPBL,
m
24 june, thu
thu2423:00+15n487152 0.0 1022426
02:00+13n378172 0.0 1022195
05:00+11n489038 0.0 1021174
08:00+13nne467741 0.0 1022308
11:00+17nnw346514 0.0 1022969
14:00+19nnw45405 0.0 10221617
17:00+20n454481 0.0 10221914
20:00+19n12555 0.0 1022839
25 june, fri
fri2523:00+15se3367100 0.0 102359
02:00+14s126558 0.0 102217
05:00+11sw228771 0.0 102227
08:00+14w247910 0.0 1021182
11:00+19w455723 0.0 1021881
14:00+20w5561100 0.0 10201075
17:00+19w456799 0.0 1019787
20:00+20nw236993 0.1 1018641
26 june, sat
sat2623:00+15nnw3494100 0.3 101977
02:00+14nw1189100 0.3 101823
05:00+14nnw1189100 0.0 101713
08:00+14nw1191100 0.4 101767
11:00+17nne1180100 0.2 1017520
14:00+19nw3175100 1.3 1016725
17:00+20nne4372100 0.1 1015537
20:00+20nne3576100 0.6 1014345
27 june, sun
sun2723:00+16nne4890100 0.0 1014174
02:00+15e3896100 0.8 1012175
05:00+15n3598100 2.6 1011168
08:00+15e3597100 16.1 1011191
11:00+16e4588100 0.6 1012343
14:00+18s3588100 1.7 1013497
17:00+16ssw5987100 0.5 1014573
20:00+15ssw4992100 0.5 1014337
28 june, mon
mon2823:00+13s3796100 0.0 1015195
02:00+13ssw3596100 0.1 1015160
05:00+13sw3788100 0.0 1015267
08:00+13s35874 0.0 1015250
11:00+18s576137 0.1 10151446
14:00+18ssw7959100 0.2 10151593
17:00+19s6107093 0.7 10131182
20:00+16s81289100 2.1 1013780